LBT55PM DTTA-LIRF

Flight info

Callsign LBT55PM
Flight time 1h 8m
Altitude 38000
Route ICANI3C ICANI UB979 SIRVI UG727 NIBEL DCT BETOT DCT TURMO DCT ESINO
Aircraft A20N/M-SDE2E3FGHIRWXY/LB1

Departure

Time 2026-05-04 22:26
Airport Tunis Carthage International Airport (DTTA)

Arrival

Time 2026-05-04 23:35
Airport Rome–Fiumicino Leonardo da Vinci International Airport (LIRF)
Time Latitude Longitude Altitude Speed Heading
2026-05-04 22:02 36.84677 10.21897 30 ft 0 kts 196°
2026-05-04 22:09 36.84680 10.21898 30 ft 0 kts 196°
2026-05-04 22:19 36.84694 10.21903 30 ft 2 kts 196°
2026-05-04 22:19 36.84710 10.21909 30 ft 2 kts 196°
2026-05-04 22:20 36.84727 10.21915 30 ft 2 kts 166°
2026-05-04 22:20 36.84739 10.21906 30 ft 0 kts 107°
2026-05-04 22:21 36.84738 10.21912 30 ft 4 kts 107°
2026-05-04 22:21 36.84732 10.21974 30 ft 11 kts 90°
2026-05-04 22:21 36.84779 10.22032 30 ft 10 kts 13°
2026-05-04 22:22 36.84845 10.22038 30 ft 9 kts
2026-05-04 22:22 36.84896 10.22064 30 ft 7 kts 46°
2026-05-04 22:22 36.84902 10.22116 30 ft 6 kts 98°
2026-05-04 22:22 36.84887 10.22191 30 ft 12 kts 103°
2026-05-04 22:23 36.84867 10.22301 30 ft 14 kts 99°
2026-05-04 22:23 36.84924 10.22377 31 ft 13 kts 11°
2026-05-04 22:23 36.85004 10.22366 31 ft 14 kts 320°
2026-05-04 22:23 36.85038 10.22262 31 ft 12 kts 288°
2026-05-04 22:24 36.85066 10.22164 31 ft 12 kts 291°
2026-05-04 22:24 36.85096 10.22076 30 ft 10 kts 296°
2026-05-04 22:24 36.85125 10.21999 30 ft 9 kts 295°
2026-05-04 22:24 36.85153 10.21919 30 ft 15 kts 292°
2026-05-04 22:25 36.85194 10.21794 30 ft 15 kts 293°
2026-05-04 22:25 36.85260 10.21713 30 ft 15 kts 350°
2026-05-04 22:25 36.85375 10.21754 31 ft 18 kts 30°
2026-05-04 22:25 36.85390 10.21881 32 ft 17 kts 117°
2026-05-04 22:26 36.85284 10.22194 34 ft 73 kts 112°
2026-05-04 22:26 36.85008 10.23025 30 ft 132 kts 112°
2026-05-04 22:26 36.84598 10.24226 283 ft 158 kts 114°
2026-05-04 22:26 36.84162 10.25500 927 ft 162 kts 116°
2026-05-04 22:27 36.83886 10.26893 1570 ft 176 kts 91°
2026-05-04 22:27 36.84382 10.28350 2162 ft 195 kts 51°
2026-05-04 22:27 36.85458 10.29467 2706 ft 208 kts 38°
2026-05-04 22:27 36.86686 10.30521 3190 ft 222 kts 35°
2026-05-04 22:28 36.88025 10.31627 3699 ft 239 kts 34°
2026-05-04 22:28 36.89454 10.32808 4287 ft 253 kts 35°
2026-05-04 22:28 36.90911 10.34085 4968 ft 265 kts 37°
2026-05-04 22:28 36.92445 10.35493 5733 ft 275 kts 37°
2026-05-04 22:29 36.93966 10.36930 6519 ft 282 kts 37°
2026-05-04 22:29 36.95539 10.38423 7339 ft 286 kts 35°
2026-05-04 22:29 36.97160 10.39884 8212 ft 289 kts 33°
2026-05-04 22:29 36.98813 10.41328 9087 ft 291 kts 33°
2026-05-04 22:30 37.00476 10.42791 9999 ft 293 kts 33°
2026-05-04 22:30 37.02150 10.44289 10703 ft 301 kts 33°
2026-05-04 22:30 37.03884 10.45850 11248 ft 313 kts 33°
2026-05-04 22:30 37.05679 10.47469 11852 ft 323 kts 33°
2026-05-04 22:31 37.07531 10.49167 12354 ft 337 kts 34°
2026-05-04 22:31 37.09446 10.50967 12885 ft 349 kts 34°
2026-05-04 22:31 37.11414 10.52819 13477 ft 358 kts 34°
2026-05-04 22:31 37.13424 10.54705 14055 ft 366 kts 34°
2026-05-04 22:32 37.15500 10.56611 14569 ft 373 kts 33°
2026-05-04 22:32 37.17626 10.58537 15182 ft 377 kts 33°
2026-05-04 22:32 37.19752 10.60470 15909 ft 378 kts 33°
2026-05-04 22:32 37.21850 10.62392 16604 ft 380 kts 33°
2026-05-04 22:33 37.24022 10.64393 17217 ft 385 kts 34°
2026-05-04 22:33 37.26114 10.66447 17815 ft 389 kts 37°
2026-05-04 22:33 37.28180 10.68661 18465 ft 392 kts 38°
2026-05-04 22:33 37.30212 10.70938 19104 ft 391 kts 39°
2026-05-04 22:34 37.32233 10.73230 19743 ft 392 kts 39°
2026-05-04 22:34 37.34278 10.75513 20307 ft 394 kts 38°
2026-05-04 22:34 37.36352 10.77789 20898 ft 395 kts 38°
2026-05-04 22:34 37.38437 10.80036 21500 ft 396 kts 37°
2026-05-04 22:35 37.40540 10.82278 22080 ft 398 kts 37°
2026-05-04 22:35 37.42693 10.84501 22630 ft 398 kts 32°
2026-05-04 22:35 37.45069 10.86246 23189 ft 395 kts 21°
2026-05-04 22:35 37.47642 10.87400 23755 ft 392 kts 11°
2026-05-04 22:36 37.50305 10.88152 24216 ft 393 kts
2026-05-04 22:36 37.52972 10.88952 24655 ft 395 kts 10°
2026-05-04 22:36 37.55638 10.89836 25126 ft 397 kts 11°
2026-05-04 22:36 37.58295 10.90759 25661 ft 395 kts 11°
2026-05-04 22:37 37.60955 10.91671 26114 ft 397 kts 11°
2026-05-04 22:37 37.63636 10.92552 26523 ft 400 kts 10°
2026-05-04 22:37 37.66352 10.93405 26854 ft 404 kts
2026-05-04 22:37 37.69098 10.94252 27218 ft 408 kts
2026-05-04 22:38 37.71862 10.95103 27652 ft 409 kts
2026-05-04 22:38 37.74627 10.95950 28152 ft 408 kts
2026-05-04 22:38 37.77387 10.96759 28709 ft 406 kts
2026-05-04 22:38 37.80160 10.97473 29083 ft 408 kts
2026-05-04 22:39 37.82019 10.97898 29306 ft 410 kts
2026-05-04 22:39 37.85758 10.98709 29828 ft 413 kts
2026-05-04 22:39 37.88590 10.99326 30270 ft 413 kts
2026-05-04 22:39 37.91414 11.00020 30689 ft 413 kts
2026-05-04 22:40 37.94228 11.00753 31109 ft 413 kts
2026-05-04 22:40 37.97037 11.01495 31523 ft 412 kts
2026-05-04 22:40 37.98936 11.01982 31810 ft 411 kts
2026-05-04 22:40 38.01735 11.02676 32242 ft 410 kts
2026-05-04 22:41 38.04531 11.03342 32704 ft 408 kts
2026-05-04 22:41 38.07286 11.03983 33022 ft 410 kts
2026-05-04 22:41 38.10099 11.04665 33267 ft 413 kts
2026-05-04 22:41 38.12929 11.05387 33550 ft 416 kts
2026-05-04 22:42 38.15770 11.06141 33829 ft 418 kts
2026-05-04 22:42 38.18631 11.06887 34066 ft 421 kts
2026-05-04 22:42 38.21511 11.07616 34284 ft 423 kts
2026-05-04 22:42 38.24409 11.08326 34496 ft 425 kts
2026-05-04 22:43 38.27320 11.09018 34722 ft 427 kts
2026-05-04 22:43 38.30245 11.09710 34939 ft 428 kts
2026-05-04 22:43 38.33186 11.10408 35183 ft 429 kts
2026-05-04 22:43 38.36123 11.11109 35453 ft 430 kts
2026-05-04 22:44 38.39066 11.11839 35727 ft 430 kts
2026-05-04 22:44 38.41999 11.12587 35981 ft 431 kts
2026-05-04 22:44 38.44943 11.13353 36267 ft 430 kts
2026-05-04 22:44 38.47862 11.14128 36601 ft 428 kts
2026-05-04 22:45 38.50777 11.14904 36966 ft 425 kts
2026-05-04 22:45 38.56543 11.16356 37658 ft 419 kts
2026-05-04 22:45 38.59377 11.17035 37868 ft 420 kts
2026-05-04 22:46 38.62282 11.17739 38056 ft 421 kts
2026-05-04 22:46 38.65174 11.18451 38101 ft 426 kts
2026-05-04 22:46 38.71020 11.19918 38098 ft 436 kts
2026-05-04 22:47 38.74008 11.20676 37991 ft 437 kts
2026-05-04 22:47 38.76996 11.21437 38110 ft 439 kts
2026-05-04 22:47 38.83064 11.22966 38107 ft 449 kts
2026-05-04 22:48 38.89241 11.24521 38095 ft 456 kts
2026-05-04 22:48 38.95495 11.26106 38100 ft 458 kts
2026-05-04 22:49 39.01745 11.27706 38097 ft 458 kts
2026-05-04 22:49 39.07963 11.29291 38098 ft 459 kts
2026-05-04 22:50 39.14239 11.30885 38100 ft 460 kts
2026-05-04 22:50 39.20518 11.32482 38113 ft 460 kts
2026-05-04 22:51 39.26796 11.34090 38138 ft 459 kts
2026-05-04 22:51 39.33071 11.35703 38125 ft 459 kts
2026-05-04 22:52 39.39341 11.37309 38125 ft 459 kts
2026-05-04 22:52 39.45618 11.38912 38122 ft 459 kts
2026-05-04 22:53 39.51878 11.40527 38131 ft 459 kts
2026-05-04 22:53 39.58128 11.42153 38121 ft 459 kts
2026-05-04 22:54 39.61327 11.42994 36665 ft 476 kts
2026-05-04 22:54 39.64516 11.43855 36928 ft 464 kts
2026-05-04 22:54 39.67662 11.44701 37391 ft 457 kts
2026-05-04 22:54 39.70772 11.45509 37731 ft 455 kts
2026-05-04 22:55 39.73870 11.46274 38033 ft 452 kts
2026-05-04 22:55 39.76965 11.47026 38117 ft 454 kts
2026-05-04 22:55 39.83170 11.48598 38111 ft 455 kts
2026-05-04 22:56 39.89337 11.50219 38109 ft 455 kts
2026-05-04 22:56 39.95591 11.51869 38126 ft 455 kts
2026-05-04 22:57 40.01766 11.53492 38127 ft 455 kts
2026-05-04 22:57 40.07966 11.55113 38125 ft 455 kts
2026-05-04 22:58 40.14162 11.56742 38109 ft 454 kts
2026-05-04 22:58 40.20361 11.58358 38109 ft 454 kts
2026-05-04 22:59 40.26552 11.59987 38111 ft 454 kts
2026-05-04 22:59 40.32766 11.61621 38137 ft 454 kts
2026-05-04 23:00 40.38959 11.63332 38115 ft 457 kts 10°
2026-05-04 23:00 40.42013 11.64575 37757 ft 460 kts 12°
2026-05-04 23:00 40.45042 11.65847 37482 ft 454 kts 12°
2026-05-04 23:01 40.48046 11.67122 37209 ft 452 kts 12°
2026-05-04 23:01 40.51030 11.68395 36933 ft 451 kts 12°
2026-05-04 23:01 40.54011 11.69664 36684 ft 450 kts 12°
2026-05-04 23:01 40.56993 11.70926 36421 ft 450 kts 12°
2026-05-04 23:02 40.59952 11.72177 35714 ft 454 kts 12°
2026-05-04 23:02 40.62971 11.73453 34816 ft 458 kts 12°
2026-05-04 23:02 40.66023 11.74737 33918 ft 463 kts 11°
2026-05-04 23:02 40.69105 11.76034 32924 ft 467 kts 12°
2026-05-04 23:03 40.72213 11.77346 31894 ft 472 kts 12°
2026-05-04 23:03 40.75361 11.78681 30865 ft 476 kts 12°
2026-05-04 23:03 40.78513 11.80027 30099 ft 475 kts 13°
2026-05-04 23:03 40.81649 11.81376 29374 ft 470 kts 13°
2026-05-04 23:04 40.84769 11.82511 28697 ft 460 kts
2026-05-04 23:04 40.87904 11.83018 28076 ft 447 kts 357°
2026-05-04 23:04 40.90972 11.82934 27470 ft 437 kts 351°
2026-05-04 23:04 40.93983 11.82697 26868 ft 432 kts 352°
2026-05-04 23:05 40.96969 11.82478 26296 ft 428 kts 352°
2026-05-04 23:05 40.99926 11.82269 25703 ft 423 kts 352°
2026-05-04 23:05 41.02854 11.82068 25129 ft 419 kts 352°
2026-05-04 23:05 41.05753 11.81866 24560 ft 415 kts 352°
2026-05-04 23:06 41.08624 11.81659 24021 ft 411 kts 353°
2026-05-04 23:06 41.11469 11.81450 23441 ft 407 kts 353°
2026-05-04 23:06 41.14280 11.81246 22913 ft 402 kts 353°
2026-05-04 23:06 41.17057 11.81045 22431 ft 396 kts 353°
2026-05-04 23:07 41.19783 11.80846 21967 ft 391 kts 353°
2026-05-04 23:07 41.22486 11.80651 21517 ft 386 kts 353°
2026-05-04 23:07 41.25115 11.80460 21079 ft 381 kts 353°
2026-05-04 23:07 41.27721 11.80269 20650 ft 371 kts 353°
2026-05-04 23:08 41.30296 11.80078 20211 ft 370 kts 353°
2026-05-04 23:08 41.32861 11.79889 19778 ft 368 kts 353°
2026-05-04 23:08 41.35408 11.79703 19610 ft 366 kts 353°
2026-05-04 23:08 41.37957 11.79573 19467 ft 368 kts 358°
2026-05-04 23:09 41.40521 11.79931 19020 ft 375 kts
2026-05-04 23:09 41.43101 11.80528 18483 ft 372 kts
2026-05-04 23:09 41.45644 11.81136 17789 ft 372 kts
2026-05-04 23:09 41.48170 11.81749 17423 ft 367 kts
2026-05-04 23:10 41.50664 11.82354 16973 ft 364 kts
2026-05-04 23:10 41.53150 11.82950 16520 ft 362 kts
2026-05-04 23:10 41.55619 11.83537 16079 ft 356 kts
2026-05-04 23:10 41.58039 11.84112 15579 ft 355 kts
2026-05-04 23:11 41.60439 11.84685 14921 ft 349 kts
2026-05-04 23:11 41.62814 11.85250 14230 ft 344 kts
2026-05-04 23:11 41.65189 11.85820 13498 ft 340 kts
2026-05-04 23:11 41.67396 11.86569 13231 ft 324 kts 19°
2026-05-04 23:12 41.69340 11.88053 12950 ft 322 kts 36°
2026-05-04 23:12 41.70886 11.90190 12689 ft 318 kts 53°
2026-05-04 23:12 41.71922 11.92802 12444 ft 319 kts 69°
2026-05-04 23:12 41.72687 11.95578 12205 ft 317 kts 69°
2026-05-04 23:13 41.73492 11.98315 11952 ft 313 kts 61°
2026-05-04 23:13 41.74850 12.00492 11702 ft 298 kts 33°
2026-05-04 23:13 41.76677 12.01614 11473 ft 284 kts
2026-05-04 23:13 41.78609 12.01624 11228 ft 275 kts 344°
2026-05-04 23:14 41.80437 12.00896 10985 ft 274 kts 339°
2026-05-04 23:14 41.82254 12.00121 10741 ft 274 kts 339°
2026-05-04 23:14 41.84065 11.99348 10529 ft 274 kts 339°
2026-05-04 23:14 41.85862 11.98585 10288 ft 274 kts 339°
2026-05-04 23:15 41.87696 11.97809 10096 ft 273 kts 340°
2026-05-04 23:15 41.89509 11.97041 9972 ft 274 kts 340°
2026-05-04 23:15 41.91300 11.96281 9844 ft 273 kts 340°
2026-05-04 23:15 41.93118 11.95509 9703 ft 274 kts 339°
2026-05-04 23:16 41.94934 11.94740 9581 ft 272 kts 340°
2026-05-04 23:16 41.96705 11.93994 9436 ft 262 kts 340°
2026-05-04 23:16 41.98359 11.93296 9313 ft 254 kts 340°
2026-05-04 23:16 42.00031 11.92588 9203 ft 251 kts 340°
2026-05-04 23:17 42.01695 11.91881 9193 ft 251 kts 340°
2026-05-04 23:17 42.03361 11.91171 9189 ft 251 kts 340°
2026-05-04 23:17 42.05027 11.90461 9174 ft 251 kts 340°
2026-05-04 23:17 42.06731 11.89735 9180 ft 260 kts 340°
2026-05-04 23:18 42.08468 11.88994 9176 ft 262 kts 340°
2026-05-04 23:18 42.10210 11.88252 9168 ft 262 kts 340°
2026-05-04 23:18 42.11953 11.87505 9166 ft 262 kts 340°
2026-05-04 23:18 42.13690 11.86762 9146 ft 262 kts 340°
2026-05-04 23:19 42.15432 11.86017 9023 ft 263 kts 340°
2026-05-04 23:19 42.17155 11.85281 8894 ft 262 kts 340°
2026-05-04 23:19 42.18893 11.84539 8746 ft 261 kts 340°
2026-05-04 23:19 42.20609 11.83869 8480 ft 252 kts 351°
2026-05-04 23:20 42.22324 11.84074 8025 ft 249 kts 18°
2026-05-04 23:20 42.23940 11.84908 7562 ft 249 kts 24°
2026-05-04 23:20 42.25531 11.85822 7132 ft 248 kts 24°
2026-05-04 23:20 42.27112 11.86740 6732 ft 247 kts 24°
2026-05-04 23:21 42.28707 11.87682 6181 ft 252 kts 29°
2026-05-04 23:21 42.30009 11.89214 5614 ft 248 kts 61°
2026-05-04 23:21 42.30735 11.91300 5081 ft 245 kts 72°
2026-05-04 23:21 42.31152 11.93505 4512 ft 240 kts 94°
2026-05-04 23:22 42.30826 11.95673 4069 ft 231 kts 112°
2026-05-04 23:22 42.30304 11.97623 3999 ft 210 kts 115°
2026-05-04 23:22 42.29552 11.99172 3996 ft 191 kts 147°
2026-05-04 23:22 42.28338 11.99744 4014 ft 187 kts 176°
2026-05-04 23:23 42.27035 11.99878 4014 ft 189 kts 174°
2026-05-04 23:23 42.25730 12.00068 4009 ft 188 kts 174°
2026-05-04 23:23 42.24442 12.00255 4013 ft 188 kts 174°
2026-05-04 23:23 42.23175 12.00624 4007 ft 188 kts 154°
2026-05-04 23:24 42.22076 12.01591 4011 ft 189 kts 146°
2026-05-04 23:24 42.21034 12.02671 4008 ft 189 kts 144°
2026-05-04 23:24 42.20003 12.03763 4009 ft 188 kts 144°
2026-05-04 23:24 42.18972 12.04854 4006 ft 188 kts 144°
2026-05-04 23:25 42.17948 12.05934 4040 ft 188 kts 144°
2026-05-04 23:25 42.16922 12.07016 4049 ft 188 kts 144°
2026-05-04 23:25 42.16242 12.07732 4053 ft 187 kts 143°
2026-05-04 23:25 42.15217 12.08807 3920 ft 186 kts 144°
2026-05-04 23:26 42.14192 12.09879 3692 ft 187 kts 148°
2026-05-04 23:26 42.13068 12.10743 3492 ft 186 kts 154°
2026-05-04 23:26 42.11926 12.11554 3293 ft 185 kts 154°
2026-05-04 23:26 42.10785 12.12354 3127 ft 184 kts 154°
2026-05-04 23:27 42.09649 12.13148 3078 ft 182 kts 154°
2026-05-04 23:27 42.08579 12.13892 3084 ft 165 kts 154°
2026-05-04 23:27 42.07610 12.14580 3067 ft 149 kts 149°
2026-05-04 23:27 42.06825 12.15421 3087 ft 141 kts 141°
2026-05-04 23:28 42.06120 12.16313 3101 ft 137 kts 139°
2026-05-04 23:28 42.05425 12.17166 3082 ft 134 kts 149°
2026-05-04 23:28 42.04565 12.17610 3093 ft 134 kts 160°
2026-05-04 23:28 42.03693 12.18048 3090 ft 134 kts 161°
2026-05-04 23:29 42.02812 12.18456 3092 ft 134 kts 163°
2026-05-04 23:29 42.01927 12.18847 3008 ft 134 kts 164°
2026-05-04 23:29 42.01043 12.19229 3011 ft 134 kts 164°
2026-05-04 23:29 42.00154 12.19608 3009 ft 134 kts 166°
2026-05-04 23:30 41.99269 12.20016 2983 ft 134 kts 164°
2026-05-04 23:30 41.98383 12.20417 2925 ft 134 kts 166°
2026-05-04 23:30 41.97491 12.20777 2764 ft 134 kts 167°
2026-05-04 23:30 41.96603 12.21130 2552 ft 133 kts 167°
2026-05-04 23:31 41.95716 12.21493 2339 ft 133 kts 167°
2026-05-04 23:31 41.94835 12.21852 2119 ft 132 kts 166°
2026-05-04 23:31 41.93974 12.22233 1962 ft 131 kts 165°
2026-05-04 23:31 41.93094 12.22620 1785 ft 131 kts 166°
2026-05-04 23:32 41.92231 12.22944 1573 ft 130 kts 168°
2026-05-04 23:32 41.91362 12.23282 1399 ft 130 kts 165°
2026-05-04 23:32 41.90504 12.23676 1221 ft 130 kts 165°
2026-05-04 23:32 41.89639 12.24033 1032 ft 129 kts 166°
2026-05-04 23:33 41.88778 12.24368 965 ft 129 kts 163°
2026-05-04 23:33 41.87923 12.24775 802 ft 130 kts 163°
2026-05-04 23:33 41.87061 12.25109 638 ft 130 kts 166°
2026-05-04 23:33 41.86188 12.25504 425 ft 133 kts 162°
2026-05-04 23:34 41.85307 12.25865 239 ft 132 kts 165°
2026-05-04 23:34 41.84427 12.26237 48 ft 133 kts 165°
2026-05-04 23:34 41.83613 12.26564 16 ft 105 kts 162°
2026-05-04 23:34 41.83078 12.26786 11 ft 56 kts 163°
2026-05-04 23:35 41.82832 12.26870 13 ft 23 kts 183°
2026-05-04 23:35 41.82684 12.26864 11 ft 23 kts 193°
2026-05-04 23:35 41.82569 12.26830 10 ft 12 kts 193°
2026-05-04 23:35 41.82481 12.26803 11 ft 14 kts 193°
2026-05-04 23:36 41.82378 12.26778 11 ft 16 kts 182°
2026-05-04 23:36 41.82262 12.26804 11 ft 18 kts 164°
2026-05-04 23:36 41.82135 12.26858 11 ft 20 kts 162°
2026-05-04 23:36 41.81995 12.26918 12 ft 22 kts 162°
2026-05-04 23:37 41.81845 12.26979 11 ft 23 kts 163°
2026-05-04 23:37 41.81672 12.27051 12 ft 27 kts 162°
2026-05-04 23:37 41.81487 12.27128 12 ft 28 kts 162°
2026-05-04 23:37 41.81298 12.27208 13 ft 29 kts 162°
2026-05-04 23:38 41.81141 12.27273 14 ft 17 kts 163°
2026-05-04 23:38 41.81019 12.27324 15 ft 19 kts 162°
2026-05-04 23:38 41.80873 12.27343 12 ft 23 kts 191°
2026-05-04 23:38 41.80713 12.27303 13 ft 24 kts 202°
2026-05-04 23:39 41.80632 12.27138 13 ft 16 kts 252°
2026-05-04 23:39 41.80621 12.27097 13 ft 0 kts 250°
2026-05-04 23:40 41.80621 12.27084 13 ft 7 kts 270°
2026-05-04 23:40 41.80663 12.27048 13 ft 11 kts 353°
2026-05-04 23:40 41.80730 12.27023 13 ft 9 kts 302°
2026-05-04 23:40 41.80710 12.26896 14 ft 17 kts 249°
2026-05-04 23:41 41.80665 12.26740 15 ft 19 kts 249°
2026-05-04 23:41 41.80618 12.26570 16 ft 20 kts 250°
2026-05-04 23:41 41.80568 12.26382 17 ft 22 kts 250°
2026-05-04 23:41 41.80515 12.26205 16 ft 15 kts 231°
2026-05-04 23:42 41.80403 12.26151 16 ft 17 kts 204°
2026-05-04 23:42 41.80284 12.26077 14 ft 20 kts 205°
2026-05-04 23:42 41.80149 12.25993 15 ft 22 kts 205°
2026-05-04 23:42 41.80002 12.25902 14 ft 24 kts 204°
2026-05-04 23:43 41.79890 12.25834 14 ft 15 kts 204°
2026-05-04 23:43 41.79798 12.25819 14 ft 13 kts 194°
2026-05-04 23:43 41.79708 12.25763 14 ft 15 kts 205°
2026-05-04 23:43 41.79648 12.25758 14 ft 6 kts 143°
2026-05-04 23:44 41.79632 12.25789 14 ft 1 kts 115°
2026-05-04 23:44 41.79630 12.25797 14 ft 0 kts 114°